TimeAKDT,TemperatureF,Dew PointF,Humidity,Sea Level PressureIn,VisibilityMPH,Wind Direction,Wind SpeedMPH,Gust SpeedMPH,PrecipitationIn,Events,Conditions,WindDirDegrees,DateUTC
12:06 AM,46.4,42.8,87,29.70,10.0,Calm,Calm,-,N/A,,Mostly Cloudy,0,2013-08-22 08:06:00
12:55 AM,45.0,41.7,88,29.71,10.0,NNW,3.5,-,N/A,,Overcast,340,2013-08-22 08:55:00
1:48 AM,44.6,42.8,93,29.71,10.0,NNW,4.6,-,N/A,,Scattered Clouds,340,2013-08-22 09:48:00
1:55 AM,44.1,41.4,90,29.71,10.0,North,3.5,-,N/A,,Scattered Clouds,360,2013-08-22 09:55:00
2:11 AM,42.8,41.0,93,29.71,10.0,Calm,Calm,-,N/A,,Mostly Cloudy,0,2013-08-22 10:11:00
2:55 AM,43.3,40.8,91,29.71,10.0,NNW,3.5,-,N/A,,Mostly Cloudy,340,2013-08-22 10:55:00
3:55 AM,43.0,40.8,92,29.70,10.0,Calm,Calm,-,N/A,,Overcast,0,2013-08-22 11:55:00
4:55 AM,42.8,40.5,91,29.70,10.0,Calm,Calm,-,N/A,,Overcast,0,2013-08-22 12:55:00
5:40 AM,42.8,41.0,93,29.70,10.0,Calm,Calm,-,N/A,,Overcast,0,2013-08-22 13:40:00
5:55 AM,43.3,40.6,90,29.70,10.0,Calm,Calm,-,N/A,,Overcast,0,2013-08-22 13:55:00
6:17 AM,42.8,41.0,93,29.70,10.0,Calm,Calm,-,N/A,,Overcast,0,2013-08-22 14:17:00
6:55 AM,43.9,41.2,90,29.70,10.0,Variable,3.5,-,N/A,,Mostly Cloudy,0,2013-08-22 14:55:00
7:55 AM,44.6,41.9,90,29.70,10.0,Calm,Calm,-,N/A,,Mostly Cloudy,0,2013-08-22 15:55:00
7:58 AM,44.6,42.8,93,29.70,10.0,Calm,Calm,-,N/A,,Mostly Cloudy,0,2013-08-22 15:58:00
8:55 AM,47.3,41.9,82,29.70,10.0,Calm,Calm,-,N/A,,Mostly Cloudy,0,2013-08-22 16:55:00
9:55 AM,51.1,44.1,77,29.69,10.0,Calm,Calm,-,N/A,,Mostly Cloudy,0,2013-08-22 17:55:00
10:37 AM,53.6,44.6,72,29.68,10.0,Calm,Calm,-,N/A,,Mostly Cloudy,0,2013-08-22 18:37:00
10:55 AM,54.3,45.0,71,29.68,10.0,Calm,Calm,-,N/A,,Mostly Cloudy,0,2013-08-22 18:55:00
11:55 AM,58.3,45.9,63,29.67,10.0,Calm,Calm,-,N/A,,Scattered Clouds,0,2013-08-22 19:55:00
12:55 PM,61.3,46.6,58,29.66,10.0,NNE,4.6,-,N/A,,Scattered Clouds,20,2013-08-22 20:55:00
1:55 PM,61.5,45.3,55,29.65,10.0,Variable,4.6,-,N/A,,Mostly Cloudy,0,2013-08-22 21:55:00
2:55 PM,64.0,45.1,50,29.70,10.0,Variable,6.9,-,N/A,,Mostly Cloudy,0,2013-08-22 22:55:00
3:55 PM,64.9,45.7,50,29.62,10.0,Calm,Calm,-,N/A,,Mostly Cloudy,0,2013-08-22 23:55:00
4:55 PM,65.1,45.5,49,29.61,10.0,Calm,Calm,-,N/A,,Mostly Cloudy,0,2013-08-23 00:55:00
5:55 PM,64.2,46.0,52,29.60,10.0,Calm,Calm,-,N/A,,Mostly Cloudy,0,2013-08-23 01:55:00
6:55 PM,63.0,47.8,58,29.60,10.0,Calm,Calm,-,0.00,,Mostly Cloudy,0,2013-08-23 02:55:00
7:11 PM,62.6,48.2,59,29.60,10.0,Calm,Calm,-,N/A,Rain,Light Rain,0,2013-08-23 03:11:00
7:35 PM,60.8,50.0,68,29.60,10.0,Calm,Calm,-,N/A,,Mostly Cloudy,0,2013-08-23 03:35:00
7:55 PM,61.0,50.7,69,29.60,10.0,West,3.5,-,0.00,Rain,Light Rain,270,2013-08-23 03:55:00
8:55 PM,57.2,53.4,87,29.59,10.0,Calm,Calm,-,0.00,,Overcast,0,2013-08-23 04:55:00
9:55 PM,57.2,50.7,79,29.60,10.0,Variable,5.8,-,0.00,,Overcast,0,2013-08-23 05:55:00
10:55 PM,54.7,51.6,89,29.60,10.0,Calm,Calm,-,0.01,,Overcast,0,2013-08-23 06:55:00
10:57 PM,55.4,51.8,88,29.60,10.0,Calm,Calm,-,N/A,,Overcast,0,2013-08-23 06:57:00
11:55 PM,53.8,51.8,93,29.59,10.0,Calm,Calm,-,0.00,Rain,Light Rain,0,2013-08-23 07:55:00